[Iaude] MPEC E135: 2024 EW2 [a=1.99,e=0.67,i=28.7,H=22.0,PHA]
    mpec at cfa.harvard.edu 
    mpec at cfa.harvard.edu
       
    Sat Mar  9 08:34:31 EST 2024
    
    
  
M.P.E.C. 2024-E135                                Issued 2024 March 9, 13:32 UT
     The Minor Planet Electronic Circulars contain information on unusual
         minor planets, routine data on comets and natural satellites,
         and occasional editorial announcements.  They are published
    on behalf of Division F of the International Astronomical Union by the
          Minor Planet Center, Smithsonian Astrophysical Observatory,
                          Cambridge, MA 02138, U.S.A.
			  
             Prepared using the Tamkin Foundation Computer Network
                              MPC at CFA.HARVARD.EDU
            URL https://www.minorplanetcenter.net/    ISSN 1523-6714
                                    2024 EW2                                    
Observations:
     K24E02W  C2024 03 01.51148112 47 32.961+56 50 34.65         20.36GVEE135F52
     K24E02W  C2024 03 01.51219212 47 32.624+56 50 34.43         20.02GVEE135F52
     K24E02W  C2024 03 01.52534512 47 26.304+56 50 29.10         19.51GVEE135F52
     K24E02W  C2024 03 01.53950512 47 19.539+56 50 23.12         20.53GVEE135F52
     K24E02W  C2024 03 01.54016712 47 19.206+56 50 22.68         19.75GVEE135F52
     K24E02W  C2024 03 01.55588112 47 11.714+56 50 15.97         20.30GVEE135F52
     K24E02W*1C2024 03 07.42837212 14 58.074+55 50 20.69         20.99GVEE135G96
     K24E02W 1C2024 03 07.43455212 14 56.447+55 50 15.54         21.04GVEE135G96
     K24E02W 1C2024 03 07.44075212 14 54.827+55 50 10.61         21.25GVEE135G96
     K24E02W 1C2024 03 07.44697612 14 53.192+55 50 05.32         21.19GVEE135G96
     K24E02W 1C2024 03 07.80449 12 13 32.20 +55 45 22.7          21.4 VXEE135033
     K24E02W 1C2024 03 07.80657 12 13 31.65 +55 45 20.6          21.7 VXEE135033
     K24E02W 1C2024 03 07.80865 12 13 31.23 +55 45 19.4          21.3 VXEE135033
     K24E02W KC2024 03 07.91467912 13 05.974+55 44 11.26         21.1 GVEE135598
     K24E02W KC2024 03 07.91785612 13 05.220+55 44 09.10         21.8 GVEE135598
     K24E02W KC2024 03 07.92125612 13 04.308+55 44 06.90         21.6 GVEE135598
     K24E02W 1C2024 03 08.07626 12 12 26.50 +55 42 09.0          22.2 VXEE135033
     K24E02W 1C2024 03 08.07910 12 12 25.81 +55 42 06.6          22.0 VXEE135033
     K24E02W 1C2024 03 08.08194 12 12 25.10 +55 42 04.5          22.0 VXEE135033
     K24E02W 1C2024 03 09.09449 12 08 44.62 +55 29 06.9          21.2 VXEE135033
     K24E02W 1C2024 03 09.09657 12 08 44.16 +55 29 05.7          21.8 VXEE135033
     K24E02W 1C2024 03 09.10074 12 08 43.26 +55 29 02.3          21.2 VXEE135033
     K24E02W 1C2024 03 09.14062 12 08 34.50 +55 28 28.9          21.4 VXEE135033
     K24E02W 1C2024 03 09.14270 12 08 34.05 +55 28 27.4          21.6 VXEE135033
     K24E02W 1C2024 03 09.14478 12 08 33.57 +55 28 25.5          21.3 VXEE135033
     K24E02W 1C2024 03 09.14687 12 08 33.19 +55 28 23.5          21.0 VXEE135033
Observer details:
033 Karl Schwarzschild Observatory, Tautenburg.  Observers S. Melnikov, C.
    Hogner, F. Ludwig, M. Hartmann, B. Stecklum.  Measurer B. Stecklum.
    1.34-m f/3 Schmidt + CCD.
598 Loiano.  Observer A. Carbognani.  1.52-m f/4.75 Reflector + CCD.
F52 Pan-STARRS 2, Haleakala.  Observers J. Herman, T. Lowe, P. Minguez, A.
    Schultz, I. Smith.  Measurers K. Chambers, T. de Boer, J. Fairlamb, H.
    Gao, M. Huber, C.-C. Lin, E. Magnier, Y. Ramanjooloo, R. Wainscoat, R.
    Weryk.  1.8-m Ritchey-Chretien + CCD.
G96 Mt. Lemmon Survey.  Observer J. B. Fazekas.  Measurers T. Beuden, V. F.
    Carvajal, D. Fay, J. B. Fazekas, D. C. Fuls, A. R. Gibbs, A. D. Grauer, H.
    Groeller, J. K. Hogan, R. A. Kowalski, S. M. Larson, G. J. Leonard, D.
    Rankin, R. L. Seaman, F. C. Shelly, K. W. Wierzchos.  1.5-m reflector +
    10K CCD.
Orbital elements:
2024 EW2                                            PHA, Earth MOID = 0.0411 AU
Epoch 2024 Mar. 31.0 TT = JDT 2460400.5                 Veres                   
M  30.53906              (2000.0)            P               Q                  
n   0.35013503     Peri.  286.27031     +0.25821833     -0.92518000             
a   1.9936351      Node   144.66478     +0.96225145     +0.27193153             
e   0.6695909      Incl.   28.74569     -0.08599674     +0.26475501             
P   2.81           H   22.09          G   0.15           U   9                  
Residuals in seconds of arc
240301 F52  0.1+  0.0     240307 G96  0.3-  0.3-    240308 033  0.3-  0.3+
240301 F52  0.1+  0.1+    240307 033  0.2-  1.0+    240309 033  0.2+  0.7-
240301 F52  0.0   0.0     240307 033  0.7-  0.2+    240309 033  0.2+  0.2-
240301 F52  0.0   0.0     240307 033  0.1-  0.4+    240309 033  0.3+  0.1-
240301 F52  0.1-  0.2-    240307 598  0.1+  0.0     240309 033  0.3-  0.1-
240301 F52  0.0   0.1+    240307 598  0.3+  0.0     240309 033  0.3-  0.2+
240307 G96  0.3+  0.2+    240307 598  0.4-  0.1+    240309 033  0.6-  0.0
240307 G96  0.1+  0.1-    240308 033  0.0   0.3+    240309 033  0.0   0.2-
240307 G96  0.1-  0.0     240308 033  0.1-  0.1+
Ephemeris:
2024 EW2                 a,e,i = 1.99, 0.67, 29                  q = 0.6587
Date    TT    R. A. (2000) Decl.     Delta      r    Elong.  Phase     V
2024 02 08    21 02 22.4 -38 21 12   0.1165  0.8807    23.5   153.5    26.3
...
2024 02 23    14 25 44.5 +55 13 25   0.1114  1.0407   114.7    59.7    19.6
...
2024 03 02    12 43 59.9 +56 46 40   0.2122  1.1285   125.8    45.4    20.7
...
2024 03 08    12 12 45.0 +55 43 05   0.2918  1.1941   127.9    41.0    21.4
2024 03 09    12 09 05.6 +55 30 21   0.3053  1.2050   128.0    40.5    21.5
2024 03 10    12 05 44.7 +55 17 15   0.3188  1.2159   128.1    40.0    21.6
...
2024 03 16    11 50 35.4 +53 52 51   0.4012  1.2808   127.9    37.8    22.2
...
2024 03 24    11 38 59.6 +51 50 16   0.5143  1.3658   126.3    36.0    22.8
...
2024 04 08    11 31 24.4 +47 43 46   0.7373  1.5197   121.1    34.3    23.8
M. P. C. Staff               (C) Copyright 2024 MPC           M.P.E.C. 2024-E135
    
    
More information about the Iaude
mailing list